Regional Weather Roundup
Issued by NWS Sioux Falls, SD

Home | Current Version | Previous Version | Text Only | Print | Product List | Glossary On
Versions: 1 2 3 4 5 6 7 8 9 10 11 12 13 14 15 16 17 18 19 20 21 22 23 24 25 26 27 28 29 30 31 32 33 34 35 36 37 38 39 40 41 42 43 44 45 46 47 48 49 50
000
ASUS43 KFSD 220902
RWRFSD

WEATHER ROUNDUP FOR SE SOUTH DAKOTA/SW MINNESOTA/NW IOWA
NATIONAL WEATHER SERVICE SIOUX FALLS SD
400 AM CDT WED OCT 22 2014

NOTE: "FAIR" INDICATES FEW OR NO CLOUDS BELOW 12,000 FEET WITH NO
SIGNIFICANT WEATHER AND OR OBSTRUCTIONS TO VISIBILITY.


SDZ038>040-050-052>070-221000-
SOUTHEAST SOUTH DAKOTA

CITY           SKY/WX    TMP DP  RH WIND       PRES   REMARKS
CHAMBERLAIN    CLEAR     59  48  66 SE12      29.83S
HURON          CLEAR     56  39  53 S15G26    29.87S
MADISON        FAIR      52  43  71 S15G22    29.98F
MITCHELL       CLEAR     57  41  55 SE18      29.90F
SIOUX FALLS    CLEAR     53  44  71 SE14G23   30.00F
WINNER         FAIR      64  54  69 S22       29.81R
YANKTON        CLEAR     55  39  54 SE16G24   29.98S
$$

MNZ071-072-080-081-089-090-097-098-221000-
SOUTHWEST MINNESOTA

CITY           SKY/WX    TMP DP  RH WIND       PRES   REMARKS
FAIRMONT       CLEAR     45  34  65 SE16G22   30.14S
JACKSON        CLEAR     45  37  76 SE12      30.11F
LUVERNE        CLOUDY    54  43  66 S15       30.05S
MARSHALL       CLOUDY    52  39  62 S21G30    30.03S
MONTEVIDEO     MOCLDY    48  41  76 CALM      30.04F
PIPESTONE      PTCLDY    52  43  71 S17G23    30.02F
REDWOOD FALLS  CLEAR     47  39  74 SE14      30.09S
TRACY          PTCLDY    49  41  72 S17G24    30.05S
WINDOM         CLEAR     46  39  76 SE13      30.10R
WORTHINGTON    MOCLDY    48  39  71 S15G23    30.08S
$$

IAZ001>003-012>014-020>022-031-032-NEZ013-014-SDZ071-221000-
NORTHWEST IOWA

CITY           SKY/WX    TMP DP  RH WIND       PRES   REMARKS
CHEROKEE       CLOUDY    51  44  76 S10       30.10S
DENISON        CLOUDY    52  43  71 SE12      30.10S
ESTHERVILLE    CLEAR     43  38  82 SE18      30.12F
LE MARS        CLEAR     55  45  67 SE13G23   30.05F
ORANGE CITY    PTCLDY    54  45  71 SE9G16    30.06S
SHELDON        CLOUDY    52  43  71 SE21      30.06S
SIOUX CITY     CLEAR     54  45  71 SE10      30.06S
SPENCER        MOCLDY    48  40  73 SE17      30.11S
STORM LAKE     MOCLDY    46  41  81 SE18G24   30.12S
$$

ABBREVIATIONS USED IN REMARKS
   TC - TEMPERATURE IN CELSIUS
  WCI - WIND CHILL INDEX
   HX - HEAT INDEX
  VSB - VISIBILITY




USA.gov is the U.S. government's official web portal to all federal, state and local government web resources and services.